[[{"header":{"parameterUnit":"m.s-1","parameterCategory":1,"la1":30.2991,"la2":30.254,"lo1":-89.0895,"lo2":-89.0444,"dy":0.0017,"dx":0.0017,"nx":28,"ny":28,"refTime":"2024-07-17T09:00:00:Z","depth":0,"parameterNumber":2,"parameterNumberName":"U-component_of_WINDS"},"data":[0,0,0,0,0,0,0,0,0,0,0,0,0,0,0,0,0,0,0,0,0,0,0,0,0,0,0,0,0,0,0,0,0,0,0,0,0,0,0,0,0,0,0,0,0,0,0,0,0,0,0,0,0,0,0,0,0,0,0.4404,0.4404,0,0.4398,0.4398,0.4398,0.4382,0.4381,0.4381,0.4381,0.4375,0.4375,0.4375,0,0,0,0,0,0,0,0,0,0,0,0,0,0.4397,0.4398,0.4404,0.4404,0.4404,0.4399,0.4398,0.4398,0.4382,0.4381,0.4381,0.4381,0.4375,0.4375,0.4375,0,0,0,0,0,0,0,0,0,0,0,0,0,0.4397,0.4398,0.4404,0.4395,0.4394,0.4399,0.4398,0.4398,0.4382,0.4381,0.4381,0.438,0.4375,0.4375,0.4375,0.4388,0,0,0.4376,0.4376,0,0,0,0,0,0,0,0,0.4397,0.4397,0.4396,0.4395,0.4394,0.439,0.4394,0.4395,0.4382,0.4387,0.4381,0.438,0.438,0.438,0.438,0.4387,0.4387,0.4376,0.4376,0.4376,0.4376,0,0,0,0,0,0,0,0.4397,0.4397,0.4402,0.4396,0.4395,0.439,0.439,0.4394,0.4386,0.4386,0.4385,0.4385,0.438,0.438,0.438,0.4387,0.4376,0.4376,0.4376,0.4376,0.4402,0.4402,0,0,0,0,0,0,0.4399,0.4397,0.4402,0.4401,0.4394,0.4391,0.439,0.4392,0.4386,0.4385,0.4385,0.4384,0.438,0.438,0.438,0.4392,0.4376,0.4376,0.4377,0.4401,0.4402,0.4402,0,0,0,0,0,0,0.4399,0.4399,0.4402,0.4399,0.4399,0.4392,0.4394,0.4392,0.4393,0.4386,0.4384,0.4387,0.4379,0.4379,0.4385,0.4392,0.4377,0.4377,0.4401,0.4401,0.4402,0.4419,0,0,0,0,0,0,0.4398,0.4399,0.4405,0.4399,0.4399,0.4408,0.4394,0.4393,0.4393,0.4392,0.4387,0.4386,0.4379,0.4385,0.4386,0.4392,0.4377,0.44,0.4401,0.4402,0.4418,0.442,0.4422,0,0,0,0,0,0.4398,0.441,0.4405,0.4406,0.4406,0.4409,0.4409,0.4401,0.4394,0.4399,0.4394,0.4386,0.4391,0.4386,0.4386,0.4393,0.44,0.4401,0.4402,0.4417,0.442,0.4422,0,0,0,0,0,0,0.4416,0.4409,0.4404,0.4414,0.4412,0.4406,0.4412,0.4405,0.4405,0.4403,0.4394,0.4393,0.44,0.4397,0.4391,0.4404,0.4394,0.4395,0.4405,0.4408,0.441,0.441,0.4377,0,0,0,0,0,0.4421,0.4425,0.4418,0.4428,0.4427,0.442,0.4421,0.4415,0.4413,0.4412,0.4407,0.4405,0.4406,0.4407,0.4408,0.4417,0.4415,0.4422,0.4424,0.4426,0.4427,0.443,0.4433,0.4406,0.4406,0.4406,0,0,0.4432,0.4428,0.4431,0.4431,0.4429,0.4432,0.4419,0.4423,0.4425,0.4412,0.4417,0.4414,0.4411,0.4418,0.4421,0.4416,0.4434,0.4428,0.4429,0.4429,0.4432,0.4434,0.4437,0.4407,0.4407,0.4407,0,0,0.4452,0.4451,0.4458,0.4456,0.4452,0.4447,0.4449,0.4444,0.4441,0.4446,0.4436,0.4437,0.444,0.4437,0.4436,0.4454,0.4446,0.4454,0.4466,0.4469,0.4471,0.4473,0.4478,0.448,0.4456,0.4456,0.4456,0,0.4466,0.447,0.4462,0.4466,0.4466,0.4454,0.446,0.4459,0.4456,0.4455,0.445,0.4451,0.4449,0.4454,0.4458,0.4459,0.4459,0.4455,0.4472,0.4473,0.4475,0.4479,0.4481,0.4457,0.4457,0.4456,0.4456,0,0.4486,0.4489,0.4495,0.4492,0.4492,0.4498,0.4489,0.4491,0.4484,0.4479,0.4483,0.4479,0.4478,0.4479,0.4474,0.4484,0.448,0.4474,0.4463,0.4478,0.4482,0.4484,0.4458,0.4458,0.4457,0.4457,0,0,0.4518,0.451,0.4512,0.4509,0.4504,0.4506,0.451,0.4509,0.4509,0.4508,0.451,0.4511,0.4504,0.4503,0.4497,0.45,0.4512,0.4492,0.4492,0.4495,0.4521,0.4526,0.4528,0.4507,0.4507,0.4508,0.4521,0,0.4536,0.4543,0.4535,0.4543,0.4544,0.4533,0.4536,0.4533,0.4528,0.4528,0.4523,0.4523,0.4515,0.4514,0.4516,0.451,0.4517,0.4509,0.4508,0.4508,0.4508,0.453,0.4535,0.4548,0.4523,0.4523,0.4523,0,0.4558,0.4557,0.4565,0.4558,0.4558,0.4561,0.4558,0.4559,0.4555,0.4551,0.4549,0.4541,0.4543,0.4534,0.4536,0.4531,0.453,0.4527,0.4527,0.4526,0.4516,0.4528,0.4552,0.4554,0.4526,0.4526,0.4525,0,0.4579,0.4579,0.4583,0.4582,0.4574,0.4576,0.4573,0.4568,0.4567,0.4565,0.4564,0.4562,0.456,0.4558,0.455,0.4544,0.4553,0.4543,0.4548,0.4549,0.455,0.455,0.4573,0.4551,0.4551,0.4551,0.4551,0,0.4599,0.4604,0.4592,0.4595,0.4599,0.459,0.4594,0.459,0.4585,0.4586,0.4576,0.4577,0.4566,0.4565,0.4559,0.4561,0.4561,0.4557,0.4555,0.4557,0.4557,0.4556,0.4554,0.4552,0.4552,0.4552,0.4552,0,0.4623,0.4615,0.4618,0.461,0.4608,0.4612,0.4605,0.4606,0.46,0.4601,0.4601,0.4592,0.459,0.4582,0.4579,0.4574,0.4578,0.4575,0.4579,0.4578,0.4583,0.4582,0.4605,0.4607,0.4585,0.4586,0.4586,0,0.4636,0.4639,0.4631,0.4631,0.4628,0.4628,0.4626,0.4617,0.4616,0.461,0.4612,0.461,0.4607,0.4605,0.4598,0.4595,0.4591,0.4599,0.459,0.4592,0.4589,0.4589,0.4588,0.4601,0.4601,0.4601,0.4601,0,0.4659,0.4654,0.4653,0.465,0.4649,0.4646,0.4643,0.4643,0.4632,0.4632,0.463,0.4628,0.4624,0.4621,0.4617,0.4613,0.4605,0.4604,0.4605,0.4607,0.4609,0.4606,0.4583,0.4603,0.4603,0.4603,0.4603,0.4603,0.4676,0.4678,0.4672,0.4671,0.4667,0.4664,0.4664,0.4658,0.4657,0.4653,0.4647,0.4646,0.464,0.4633,0.4629,0.4627,0.4623,0.4625,0.4625,0.4625,0.4626,0.461,0.4627,0.4627,0.4627,0.4627,0.4627,0,0.4698,0.4693,0.4692,0.4687,0.4686,0.4678,0.4674,0.4673,0.4672,0.4667,0.4664,0.4662,0.4659,0.4651,0.4647,0.4647,0.4643,0.4646,0.4646,0.4644,0.4631,0.463,0.4649,0.4649,0.4649,0.4649,0.4649,0.4649,0.4709,0.4711,0.4705,0.4705,0.47,0.4699,0.4697,0.4693,0.4689,0.4686,0.4684,0.4679,0.4672,0.4667,0.4664,0.4662,0.466,0.4664,0.4661,0.4648,0.4646,0.4643,0.4642,0.4664,0.4664,0.4674,0.4674,0.4674]},{"header":{"parameterUnit":"m.s-1","parameterCategory":1,"la1":30.2991,"la2":30.254,"lo1":-89.0895,"lo2":-89.0444,"dy":0.0017,"dx":0.0017,"nx":28,"ny":28,"refTime":"2024-07-17T09:00:00:Z","depth":0,"parameterNumber":3,"parameterNumberName":"V-component_of_WINDS"},"data":[0,0,0,0,0,0,0,0,0,0,0,0,0,0,0,0,0,0,0,0,0,0,0,0,0,0,0,0,0,0,0,0,0,0,0,0,0,0,0,0,0,0,0,0,0,0,0,0,0,0,0,0,0,0,0,0,0,0,3.6873,3.6873,0,3.6906,3.6907,3.6907,3.6837,3.6835,3.6832,3.683,3.6861,3.6864,3.6867,0,0,0,0,0,0,0,0,0,0,0,0,0,3.6744,3.6746,3.6873,3.6873,3.6873,3.6906,3.6907,3.6907,3.6837,3.6834,3.6832,3.6829,3.686,3.6864,3.6867,0,0,0,0,0,0,0,0,0,0,0,0,0,3.6791,3.6747,3.6873,3.6843,3.684,3.6906,3.6907,3.6907,3.6838,3.6834,3.6831,3.6828,3.6859,3.6864,3.6868,3.6964,0,0,3.6881,3.6883,0,0,0,0,0,0,0,0,3.6788,3.6795,3.6847,3.6845,3.6842,3.6864,3.6873,3.6926,3.6839,3.6839,3.683,3.6826,3.6865,3.6869,3.6882,3.6965,3.6966,3.6882,3.6885,3.6886,3.6888,0,0,0,0,0,0,0,3.6785,3.6794,3.6886,3.6847,3.6845,3.6826,3.6829,3.6882,3.687,3.6838,3.6833,3.6839,3.6863,3.6878,3.6882,3.6967,3.6882,3.6886,3.6888,3.689,3.7128,3.7132,0,0,0,0,0,0,3.6786,3.6791,3.6885,3.6887,3.6806,3.6831,3.6834,3.686,3.687,3.6868,3.6841,3.6835,3.6872,3.6877,3.6883,3.6995,3.6886,3.6891,3.6893,3.7125,3.7129,3.7133,0,0,0,0,0,0,3.6783,3.6795,3.6883,3.6838,3.6848,3.6837,3.6867,3.6863,3.6878,3.6872,3.6869,3.6859,3.687,3.6877,3.6944,3.6995,3.6893,3.6897,3.712,3.7126,3.7131,3.7219,0,0,0,0,0,0,3.678,3.6794,3.6832,3.6839,3.685,3.6945,3.687,3.6866,3.6886,3.6878,3.6888,3.6886,3.6868,3.6938,3.6949,3.6999,3.69,3.7116,3.7123,3.7129,3.7212,3.7227,3.724,0,0,0,0,0,3.6776,3.6855,3.6834,3.6846,3.6897,3.6948,3.6954,3.6932,3.6891,3.6927,3.6923,3.6886,3.6988,3.6945,3.6957,3.701,3.7112,3.7121,3.7129,3.7205,3.7224,3.724,0,0,0,0,0,0,3.6852,3.6855,3.6832,3.6916,3.6933,3.6936,3.6981,3.6953,3.698,3.6972,3.6942,3.6945,3.7017,3.702,3.6973,3.7102,3.7043,3.7054,3.7097,3.7115,3.7129,3.7126,3.6904,0,0,0,0,0,3.6879,3.6922,3.6922,3.6996,3.7005,3.6992,3.7014,3.6995,3.7011,3.7017,3.7018,3.7033,3.7068,3.7092,3.7124,3.7212,3.7213,3.7254,3.7268,3.728,3.729,3.7335,3.7353,3.716,3.716,3.716,0,0,3.6935,3.6942,3.697,3.7011,3.7022,3.7065,3.6998,3.7047,3.7079,3.7024,3.7087,3.7088,3.7103,3.7181,3.7215,3.7186,3.7343,3.7291,3.73,3.7303,3.7346,3.7364,3.738,3.7166,3.7165,3.7164,0,0,3.7058,3.7068,3.713,3.7142,3.716,3.715,3.7166,3.7174,3.7173,3.7236,3.7195,3.7232,3.7294,3.7306,3.732,3.7448,3.7414,3.7459,3.7533,3.7578,3.7593,3.7606,3.7651,3.7667,3.7469,3.7469,3.7469,0,3.7124,3.7189,3.7166,3.7218,3.7236,3.719,3.7252,3.7264,3.7291,3.7304,3.7271,3.7347,3.7354,3.7433,3.7464,3.7478,3.7493,3.7457,3.7593,3.7606,3.7618,3.766,3.7677,3.7474,3.7473,3.7473,3.7472,0,3.7269,3.7315,3.7363,3.7391,3.7415,3.7472,3.7455,3.7483,3.7462,3.7456,3.7521,3.7527,3.756,3.7577,3.7558,3.7654,3.7635,3.7598,3.7538,3.7642,3.7681,3.7697,3.7482,3.748,3.7478,3.7477,0,0,3.7441,3.7455,3.7473,3.7485,3.75,3.7534,3.7588,3.7621,3.7644,3.7664,3.7708,3.7761,3.7727,3.7743,3.7724,3.7764,3.7863,3.7722,3.7722,3.7747,3.7969,3.7996,3.8015,3.7842,3.7845,3.7847,3.7967,0,3.7562,3.7656,3.7636,3.7728,3.7769,3.7726,3.7772,3.7786,3.7782,3.7815,3.781,3.7848,3.7801,3.781,3.7848,3.7844,3.7907,3.7835,3.7881,3.7883,3.7877,3.8035,3.8064,3.8177,3.7982,3.7985,3.7987,0,3.7716,3.7742,3.7838,3.7847,3.7863,3.7906,3.7934,3.7967,3.7981,3.7975,3.7994,3.7967,3.8019,3.796,3.8031,3.7982,3.8,3.8,3.8004,3.8006,3.794,3.8041,3.8212,3.8229,3.801,3.8009,3.8007,0,3.783,3.7889,3.7954,3.7966,3.7977,3.8008,3.8014,3.8025,3.8046,3.807,3.8083,3.8113,3.8129,3.8152,3.8134,3.8093,3.8207,3.8147,3.8203,3.8203,3.8228,3.8226,3.8404,3.8242,3.8242,3.8241,3.8241,0,3.7966,3.8026,3.8006,3.8046,3.8111,3.8088,3.8153,3.8154,3.8164,3.8202,3.8166,3.8203,3.8177,3.8211,3.8197,3.8258,3.8265,3.8261,3.8257,3.8264,3.8264,3.8274,3.8265,3.8246,3.8245,3.8244,3.8243,0,3.8104,3.8093,3.8161,3.8166,3.8169,3.8217,3.8221,3.8258,3.8251,3.83,3.831,3.83,3.8338,3.8322,3.8363,3.8353,3.843,3.8416,3.8426,3.8421,3.8478,3.8473,3.8667,3.869,3.8515,3.8516,3.8518,0,3.8191,3.8237,3.8248,3.8271,3.828,3.8318,3.8339,3.8318,3.8341,3.8361,3.8395,3.843,3.8457,3.852,3.8515,3.8545,3.8531,3.8597,3.8535,3.8541,3.853,3.8528,3.8531,3.8609,3.8611,3.8612,3.8614,0,3.8347,3.8339,3.8372,3.8402,3.8429,3.8451,3.8471,3.8492,3.8471,3.8499,3.8538,3.8559,3.86,3.8635,3.8662,3.8667,3.8637,3.8634,3.8648,3.8655,3.8659,3.8656,3.8458,3.8629,3.8627,3.8626,3.8625,3.8625,3.8461,3.8499,3.8513,3.855,3.8562,3.8581,3.8616,3.8614,3.8646,3.8679,3.8664,3.8709,3.8721,3.8755,3.8764,3.8798,3.8772,3.8793,3.8798,3.8804,3.8811,3.8654,3.8803,3.8803,3.8802,3.8802,3.8801,0,3.8614,3.8621,3.8655,3.8684,3.8713,3.8683,3.8703,3.8728,3.8769,3.8784,3.8811,3.8856,3.889,3.8888,3.8919,3.8947,3.8934,3.8955,3.8953,3.8954,3.8833,3.8817,3.8966,3.8966,3.8965,3.8965,3.8965,3.8965,3.8697,3.8759,3.8753,3.8821,3.8827,3.8871,3.8885,3.8902,3.8913,3.8965,3.8993,3.8992,3.9,3.9032,3.9061,3.9059,3.9072,3.9099,3.9093,3.8979,3.8963,3.8947,3.8932,3.9102,3.9103,3.9211,3.9212,3.9212]}]]